Weather Roundup
Issued by NWS

Home | Current Version | Previous Version | Graphics & Text | Print | Product List | Glossary Off
Versions: 1 2 3 4 5 6 7 8 9 10 11 12 13 14 15 16 17 18 19 20 21 22 23 24 25 26 27 28 29 30 31 32 33 34 35 36 37 38 39 40 41 42 43 44 45 46 47 48 49 50

000
NZUS93 KARX 271410
HRRWXR

CURRENT HOURLY OBSERVATIONS ACROSS
MUCH OF THE UPPER MISSISSIPPI VALLEY
NATIONAL WEATHER SERVICE LA CROSSE WI
900 AM CDT THU JUL 27 2017


...SOUTHEAST MINNESOTA...


CITY           SKY/WX    TMP DP  RH WIND       PRES   REMARKS
ROCHESTER      SUNNY     72  65  78 NE6       30.07S
ROCHESTER/MAYO FAIR      69  63  80 CALM      30.07S
WINONA         SUNNY     70  68  94 CALM      30.05F
AUSTIN         SUNNY     72  64  78 N5        30.07R
ALBERT LEA     SUNNY     73  66  78 NE5       30.07S
DODGE CENTER   SUNNY     70  64  83 N3        30.08R
PRESTON        SUNNY     70  62  76 NE5       30.07S
OWATONNA       SUNNY     70  64  83 CALM      30.08R
FARIBAULT      SUNNY     72  64  78 N6        30.08S
$$

...ELSEWHERE IN MINNESOTA...


CITY           SKY/WX    TMP DP  RH WIND       PRES   REMARKS
MINNEAPOLIS    SUNNY     75  61  61 NE5       30.07S
INTNL FALLS    SUNNY     71  62  73 CALM      30.11R
DULUTH         SUNNY     72  63  73 CALM      30.10R
RED WING       SUNNY     72  63  73 CALM      30.05S
REDWOOD FALLS  SUNNY     72  62  71 CALM      30.11R
MANKATO        SUNNY     71  63  75 NE6       30.09R
WORTHINGTON    SUNNY     69  63  81 N6        30.13S
FAIRMONT       SUNNY     71  65  81 N5        30.09S
$$

...SOUTHWEST WISCONSIN...


CITY           SKY/WX    TMP DP  RH WIND       PRES   REMARKS
LA CROSSE      SUNNY     74  67  78 NW3       30.03S
PRAIRIE DU CHI SUNNY     75  61  62 NE6       30.01R
BOSCOBEL       SUNNY     76  66  71 VRB5      30.01S
LONE ROCK      SUNNY     75  65  70 NE6       30.00S
PLATTEVILLE    MOSUNNY   73  72  96 N10       30.01R
FORT MC COY    SUNNY     68  61  77 NE3       30.05S
CAMP DOUGLAS   SUNNY     73  64  73 N3        30.04R
MAUSTON-NEW LI SUNNY     71  65  82 NW3       30.03S
VIROQUA        FAIR      72  64  75 NE6       30.05S
WIS DELLS      SUNNY     72  62  72 NE6       30.03R
$$

...ELSEWHERE IN WISCONSIN...


CITY           SKY/WX    TMP DP  RH WIND       PRES   REMARKS
MILWAUKEE      MOSUNNY   74  68  81 NE13G22   29.97R
MADISON        SUNNY     74  66  76 NE9       29.99S
GREEN BAY      SUNNY     74  65  73 NE12      30.02S
EAU CLAIRE     SUNNY     72  62  71 NE5       30.05S
BLACK RVR FLS  FAIR      71  64  77 CALM      30.05R
MEDFORD        SUNNY     67  61  79 NE8       30.08R
WAUSAU         SUNNY     71  60  68 N3        30.05R
WIS RAPIDS     SUNNY     73  62  68 SE5       30.06R
MARSHFIELD     SUNNY     73  60  63 NE7       30.05R
RICE LAKE      SUNNY     69  61  75 CALM      30.10R
$$

...NORTHEAST IOWA...


CITY           SKY/WX    TMP DP  RH WIND       PRES   REMARKS
WATERLOO       SUNNY     74  65  73 N9        30.02R
DUBUQUE        MOSUNNY   73  69  87 NE13      30.00R
DECORAH        SUNNY     72  63  73 NE8       30.03S
MASON CITY     SUNNY     72  65  78 NE6       30.08R
CHARLES CITY   SUNNY     72  66  83 NE6       30.05S
OELWEIN        SUNNY     73  68  83 NE9       30.03R
$$

...ELSEWHERE IN IOWA...


CITY           SKY/WX    TMP DP  RH WIND       PRES   REMARKS
DES MOINES     MOSUNNY   76  68  76 N12       30.01R
IOWA CITY      PTSUNNY   77  70  79 NE10      30.00R
FORT DODGE     SUNNY     72  64  78 NE8       30.08R
MARSHALLTOWN   SUNNY     75  66  73 NE9       30.02R
CEDAR RAPIDS   NOT AVBL
$$

...NORTHERN ILLINOIS...


CITY           SKY/WX    TMP DP  RH WIND       PRES   REMARKS
CHICAGO-OHARE  PTSUNNY   77  68  73 NE13      29.94R
CHICAGO-MIDWAY PTSUNNY   80  70  71 N9        29.93S
MOLINE         CLOUDY    74  69  85 NE9       29.97R
ROCKFORD       PTSUNNY   79  71  76 NE12      29.97R
PEORIA         CLOUDY    75  74  96 NW3       29.95R
$$

NOTE: "FAIR" INDICATES FEW OR NO CLOUDS BELOW 12,000 FEET WITH NO
SIGNIFICANT WEATHER AND/OR OBSTRUCTIONS TO VISIBILITY. WIND
SPEEDS ARE IN MILES-PER-HOUR.




USA.gov is the U.S. government's official web portal to all federal, state and local government web resources and services.